• In India
  • List of Countries
  • For 7 days
  • Water Temperature
  • Satellite Maps
  • Weather Map
  • Weather Widgets
  • user-avatar
    Login

    Hourly Weather Popovo

    Today, 20 October, Saturday

    Time Temperature Precipitation Wind Pressure Humidity
    00:00 +12°C° 0 mm 3 mps 756 mmHg 75%
    01:00 +13°C° 0 mm 2 mps 756 mmHg 79%
    02:00 +12°C° 0 mm 2 mps 756 mmHg 80%
    03:00 +12°C° 0 mm 2 mps 756 mmHg 81%
    04:00 +12°C° 0 mm 2 mps 757 mmHg 82%
    05:00 +12°C° 0 mm 2 mps 757 mmHg 82%
    06:00 +12°C° 0 mm 2 mps 757 mmHg 82%
    07:00 +13°C° 0 mm 2 mps 757 mmHg 80%
    08:00 +14°C° 0 mm 2 mps 757 mmHg 73%
    09:00 +16°C° 0 mm 2 mps 757 mmHg 67%
    10:00 +18°C° 0 mm 2 mps 757 mmHg 61%
    11:00 +18°C° 0 mm 2 mps 757 mmHg 58%
    12:00 +19°C° 0 mm 2 mps 757 mmHg 55%
    13:00 +20°C° 0 mm 2 mps 756 mmHg 52%
    14:00 +19°C° 0 mm 2 mps 756 mmHg 55%
    15:00 +19°C° 0 mm 2 mps 756 mmHg 58%
    16:00 +18°C° 0 mm 2 mps 756 mmHg 61%
    17:00 +17°C° 0 mm 3 mps 756 mmHg 63%
    18:00 +16°C° 0 mm 3 mps 756 mmHg 65%
    19:00 +16°C° 0 mm 3 mps 756 mmHg 68%
    20:00 +14°C° 0.2 mm 3 mps 756 mmHg 71%
    21:00 +14°C° 0.2 mm 3 mps 756 mmHg 73%
    22:00 +14°C° 0.2 mm 2 mps 756 mmHg 76%
    23:00 +13°C° 0.2 mm 3 mps 755 mmHg 78%

    Tomorrow, 21 October, Sunday

    Time Temperature Precipitation Wind Pressure Humidity
    00:00 +13°C° 0.2 mm 3 mps 755 mmHg 79%
    01:00 +12°C° 0.2 mm 3 mps 755 mmHg 80%
    02:00 +12°C° 0.2 mm 4 mps 755 mmHg 80%
    03:00 +12°C° 0.2 mm 4 mps 755 mmHg 80%
    04:00 +11°C° 0.2 mm 4 mps 754 mmHg 80%
    05:00 +11°C° 0.1 mm 4 mps 755 mmHg 80%
    06:00 +11°C° 0.1 mm 4 mps 755 mmHg 80%
    07:00 +11°C° 0.1 mm 3 mps 755 mmHg 80%
    08:00 +12°C° 0 mm 3 mps 755 mmHg 76%
    09:00 +14°C° 0 mm 3 mps 756 mmHg 72%
    10:00 +15°C° 0 mm 4 mps 756 mmHg 67%
    11:00 +16°C° 0 mm 3 mps 756 mmHg 66%
    12:00 +16°C° 0 mm 3 mps 756 mmHg 64%
    13:00 +17°C° 0 mm 3 mps 756 mmHg 63%
    14:00 +16°C° 0 mm 3 mps 757 mmHg 64%
    15:00 +16°C° 0 mm 3 mps 757 mmHg 65%
    16:00 +15°C° 0 mm 2 mps 757 mmHg 67%
    17:00 +14°C° 0 mm 3 mps 757 mmHg 68%
    18:00 +13°C° 0 mm 3 mps 758 mmHg 70%
    19:00 +12°C° 0 mm 3 mps 758 mmHg 71%
    20:00 +12°C° 0 mm 3 mps 758 mmHg 71%
    21:00 +11°C° 0 mm 3 mps 759 mmHg 71%
    22:00 +11°C° 0 mm 3 mps 759 mmHg 71%
    23:00 +11°C° 0 mm 3 mps 759 mmHg 71%

    Day after tomorrow, 22 October, Monday

    Time Temperature Precipitation Wind Pressure Humidity
    00:00 +10°C° 0 mm 3 mps 759 mmHg 72%
    01:00 +10°C° 0 mm 2 mps 759 mmHg 72%
    02:00 +9°C° 0 mm 2 mps 759 mmHg 73%
    03:00 +9°C° 0 mm 2 mps 758 mmHg 74%
    04:00 +9°C° 0 mm 2 mps 758 mmHg 75%
    05:00 +9°C° 0 mm 2 mps 758 mmHg 74%
    06:00 +9°C° 0 mm 2 mps 759 mmHg 73%
    07:00 +9°C° 0 mm 2 mps 759 mmHg 72%
    08:00 +12°C° 0 mm 2 mps 759 mmHg 65%
    09:00 +14°C° 0 mm 2 mps 758 mmHg 58%
    10:00 +16°C° 0 mm 1 mps 758 mmHg 52%
    11:00 +16°C° 0 mm 1 mps 758 mmHg 50%
    12:00 +18°C° 0 mm 1 mps 757 mmHg 48%
    13:00 +19°C° 0 mm 1 mps 757 mmHg 46%
    14:00 +17°C° 0 mm 2 mps 756 mmHg 49%
    15:00 +16°C° 0 mm 2 mps 756 mmHg 52%
    16:00 +16°C° 0 mm 2 mps 756 mmHg 54%
    17:00 +15°C° 0 mm 2 mps 756 mmHg 56%
    18:00 +14°C° 0 mm 2 mps 756 mmHg 58%
    19:00 +13°C° 0 mm 2 mps 757 mmHg 60%
    20:00 +12°C° 0 mm 2 mps 757 mmHg 60%
    21:00 +12°C° 0 mm 2 mps 757 mmHg 61%
    22:00 +12°C° 0 mm 2 mps 757 mmHg 61%
    23:00 +12°C° 0 mm 2 mps 757 mmHg 62%

    23 October, Tuesday

    Time Temperature Precipitation Wind Pressure Humidity
    00:00 +10°C° 0 mm 2 mps 757 mmHg 64%
    01:00 +10°C° 0 mm 2 mps 756 mmHg 65%
    02:00 +9°C° 0 mm 2 mps 756 mmHg 65%
    03:00 +9°C° 0 mm 2 mps 756 mmHg 65%
    04:00 +9°C° 0 mm 2 mps 756 mmHg 65%
    05:00 +9°C° 0 mm 2 mps 756 mmHg 65%
    06:00 +9°C° 0 mm 2 mps 756 mmHg 65%
    07:00 +9°C° 0 mm 2 mps 756 mmHg 64%
    08:00 +10°C° 0 mm 3 mps 756 mmHg 63%
    09:00 +11°C° 0 mm 3 mps 756 mmHg 61%
    10:00 +12°C° 0 mm 4 mps 756 mmHg 59%
    11:00 +12°C° 0 mm 3 mps 755 mmHg 57%
    12:00 +13°C° 0 mm 3 mps 755 mmHg 54%
    13:00 +13°C° 0 mm 3 mps 754 mmHg 51%
    14:00 +14°C° 0 mm 2 mps 754 mmHg 53%
    15:00 +13°C° 0 mm 2 mps 753 mmHg 54%
    16:00 +13°C° 0 mm 1 mps 753 mmHg 55%
    17:00 +12°C° 0 mm 1 mps 753 mmHg 57%
    18:00 +12°C° 0 mm 2 mps 752 mmHg 58%
    19:00 +10°C° 0 mm 2 mps 752 mmHg 59%
    20:00 +10°C° 0 mm 3 mps 751 mmHg 60%
    21:00 +10°C° 0 mm 3 mps 750 mmHg 61%
    22:00 +8°C° 0 mm 4 mps 750 mmHg 61%
    23:00 +8°C° 0.4 mm 4 mps 749 mmHg 65%

    24 October, Wednesday

    Time Temperature Precipitation Wind Pressure Humidity
    00:00 +8°C° 0.4 mm 5 mps 748 mmHg 69%
    01:00 +7°C° 0.4 mm 5 mps 747 mmHg 73%
    02:00 +7°C° 1.5 mm 6 mps 746 mmHg 76%
    03:00 +7°C° 1.5 mm 6 mps 745 mmHg 80%
    04:00 +7°C° 1.5 mm 6 mps 744 mmHg 83%
    05:00 +8°C° 1 mm 6 mps 744 mmHg 81%
    06:00 +9°C° 1 mm 6 mps 743 mmHg 80%
    07:00 +9°C° 1 mm 6 mps 743 mmHg 79%
    08:00 +10°C° 0.6 mm 7 mps 743 mmHg 73%
    09:00 +11°C° 0.6 mm 8 mps 742 mmHg 68%
    10:00 +11°C° 0.6 mm 8 mps 742 mmHg 62%
    11:00 +11°C° 0 mm 9 mps 743 mmHg 55%
    12:00 +10°C° 0 mm 9 mps 743 mmHg 49%
    13:00 +9°C° 0 mm 10 mps 744 mmHg 43%
    14:00 +9°C° 0 mm 8 mps 744 mmHg 44%
    15:00 +8°C° 0 mm 7 mps 745 mmHg 45%
    16:00 +7°C° 0 mm 5 mps 746 mmHg 46%
    17:00 +6°C° 0 mm 5 mps 746 mmHg 49%
    18:00 +5°C° 0 mm 4 mps 747 mmHg 52%
    19:00 +4°C° 0 mm 3 mps 747 mmHg 55%
    20:00 +4°C° 0 mm 3 mps 748 mmHg 56%
    21:00 +4°C° 0 mm 3 mps 748 mmHg 57%
    22:00 +3°C° 0 mm 4 mps 749 mmHg 58%
    23:00 +3°C° 0 mm 4 mps 749 mmHg 59%

    25 October, Thursday

    Time Temperature Precipitation Wind Pressure Humidity
    00:00 +3°C° 0 mm 4 mps 749 mmHg 59%
    01:00 +3°C° 0 mm 4 mps 749 mmHg 60%
    02:00 +3°C° 0 mm 4 mps 750 mmHg 61%
    03:00 +1°C° 0 mm 4 mps 750 mmHg 62%
    04:00 +2°C° 0 mm 3 mps 750 mmHg 63%
    05:00 +2°C° 0 mm 3 mps 751 mmHg 63%
    06:00 +2°C° 0 mm 3 mps 751 mmHg 64%
    07:00 +2°C° 0 mm 3 mps 751 mmHg 64%
    08:00 +4°C° 0 mm 3 mps 751 mmHg 58%
    09:00 +6°C° 0 mm 4 mps 751 mmHg 52%
    10:00 +7°C° 0 mm 4 mps 751 mmHg 46%
    11:00 +8°C° 0.1 mm 4 mps 751 mmHg 47%
    12:00 +8°C° 0.1 mm 4 mps 750 mmHg 48%
    13:00 +10°C° 0.1 mm 4 mps 750 mmHg 48%
    14:00 +8°C° 0.1 mm 4 mps 750 mmHg 55%
    15:00 +9°C° 0.1 mm 3 mps 750 mmHg 62%
    16:00 +8°C° 0.1 mm 3 mps 749 mmHg 69%
    17:00 +8°C° 0.1 mm 2 mps 749 mmHg 72%
    18:00 +8°C° 0.1 mm 2 mps 749 mmHg 76%
    19:00 +8°C° 0.1 mm 2 mps 749 mmHg 79%
    20:00 +8°C° 0.1 mm 2 mps 749 mmHg 81%
    21:00 +8°C° 0.1 mm 2 mps 749 mmHg 82%
    22:00 +9°C° 0.1 mm 1 mps 749 mmHg 84%
    23:00 +9°C° 0 mm 1 mps 750 mmHg 84%
    Show more